Meteo Giornale » Osservazioni meteo Repubblica Ceca » Namest

ore: 23:30 - Osservazioni Meteo Namest
Lat. 49° 10' N Lon. 16° 7' E Alt. 472 metri s.l.m.

sereno Europe/Prague

17 °C

Sereno

Temp. 24 Ore

13 °C

23 °C

Sud-Est

16.7 Km/h

Dew point 8 °C

Umidità 55 %

Visibilità  10 Km

Il sole sorge alle ore 06:41

Il sole tramonta alle ore 18:54

Data e Ora Cielo e Fenomeni T °C DP °C Um. % Pres. hPa Vis. km Vento km/h
Oggi h: 23:30 sereno Sereno 17 8 55 1012 10 SE 16.7
Oggi h: 23:00 sereno Sereno 17 8 55 1012 10 E/SE 20.3
Oggi h: 22:30 sereno Sereno 17 8 55 1012 10 E/SE 20.3
Oggi h: 22:00 sereno Sereno 18 8 51 1012 10 E/SE 18.5
Oggi h: 21:30 sereno Sereno 19 7 45 1012 10 E/SE 13
Oggi h: 21:00 sereno Sereno 19 8 48 1012 10 E/SE 16.7
Oggi h: 20:30 sereno Sereno 19 8 48 1012 10 E 14.8
Oggi h: 20:00 sereno Sereno 19 8 48 1012 10 E/SE 13
Oggi h: 19:30 sereno Sereno 20 9 49 1013 10 SE 16.7
Oggi h: 19:00 sereno Sereno 20 9 49 1013 10 E/SE 14.8
Oggi h: 18:30 sereno Sereno 21 9 46 1013 10 SE 18.5
Oggi h: 18:00 sereno Sereno 22 9 43 1013 10 SE 18.5
Oggi h: 17:30 sereno Sereno 22 9 43 1013 10 SE 24
Oggi h: 17:00 sereno Sereno 23 9 40 1013 10 SE 25.9
Oggi h: 16:00 sereno Sereno 23 9 40 1014 10 SE 25.9
Oggi h: 15:30 sereno Sereno 23 8 38 1014 10 SE 25.9
Oggi h: 15:00 sereno Sereno 23 8 38 1014 10 S/SE 27.8
Oggi h: 14:30 sereno Sereno 23 8 38 1014 10 SE 27.8
Oggi h: 14:00 sereno Sereno 23 7 35 1015 10 SE 31.5
Oggi h: 13:30 sereno Sereno 23 7 35 1015 10 SE 27.8
Oggi h: 13:00 sereno Sereno 22 7 37 1015 10 SE 27.8
Oggi h: 12:30 sereno Sereno 21 8 43 1015 10 SE 25.9
Oggi h: 12:00 sereno Sereno 20 9 49 1016 10 SE 22.2
Oggi h: 11:30 sereno Sereno 19 9 52 1016 10 E/SE 20.3
Oggi h: 11:00 sereno Sereno 18 8 51 1016 10 E/SE 20.3
Oggi h: 10:30 sereno Sereno 17 8 55 1016 10 E/SE 22.2
Oggi h: 10:00 sereno Sereno 16 8 58 1016 10 E/SE 18.5
Oggi h: 09:30 sereno Sereno 16 8 58 1016 10 E/SE 18.5
Oggi h: 09:00 sereno Sereno 15 8 62 1016 10 E 18.5
Oggi h: 08:30 sereno Sereno 14 7 62 1016 10 E 16.7
Oggi h: 08:00 sereno Sereno 14 7 62 1016 10 E 16.7
Oggi h: 07:30 sereno Sereno 13 6 62 1016 10 E 14.8
Oggi h: 07:00 sereno Sereno 13 6 62 1016 10 E 14.8
Oggi h: 06:30 sereno Sereno 13 6 62 1016 10 E 13
Oggi h: 06:00 sereno Sereno 14 5 54 1016 10 E 13
Oggi h: 05:30 sereno Sereno 14 5 54 1016 10 E 14.8
Oggi h: 05:00 sereno Sereno 14 5 54 1016 10 E 13
Oggi h: 04:30 sereno Sereno 15 5 51 1016 10 E 16.7
Oggi h: 04:00 sereno Sereno 15 5 51 1016 10 E 18.5
Oggi h: 03:30 sereno Sereno 14 5 54 1016 10 E 16.7
Oggi h: 03:00 sereno Sereno 15 5 51 1016 10 E 14.8
Oggi h: 02:30 sereno Sereno 15 5 51 1016 10 E/SE 14.8
Oggi h: 02:00 sereno Sereno 15 5 51 1016 10 E/SE 14.8
Oggi h: 01:30 sereno Sereno 15 5 51 1017 10 E/SE 18.5
Oggi h: 01:00 sereno Sereno 15 5 51 1017 10 E/SE 20.3
Oggi h: 00:30 sereno Sereno 16 5 47 1017 10 E/SE 16.7